TimeCDT,TemperatureF,Dew PointF,Humidity,Sea Level PressureIn,VisibilityMPH,Wind Direction,Wind SpeedMPH,Gust SpeedMPH,PrecipitationIn,Events,Conditions,WindDirDegrees,DateUTC
12:51 AM,75.9,70.0,82,29.79,9.0,South,16.1,25.3,N/A,,Overcast,180,2012-10-21 05:51:00
1:51 AM,77.0,70.0,79,29.80,9.0,South,16.1,32.2,N/A,,Overcast,180,2012-10-21 06:51:00
2:51 AM,77.0,70.0,79,29.81,9.0,South,17.3,24.2,N/A,,Overcast,180,2012-10-21 07:51:00
3:51 AM,77.0,70.0,79,29.81,9.0,South,17.3,24.2,N/A,,Overcast,190,2012-10-21 08:51:00
4:51 AM,77.0,69.8,78,29.83,9.0,South,15.0,23.0,N/A,,Overcast,180,2012-10-21 09:51:00
5:51 AM,75.0,69.1,82,29.83,9.0,South,16.1,-,N/A,,Scattered Clouds,180,2012-10-21 10:51:00
6:01 AM,75.2,69.8,83,29.86,9.0,South,13.8,-,N/A,,Mostly Cloudy,180,2012-10-21 11:01:00
6:51 AM,73.9,70.0,87,29.84,8.0,South,12.7,-,N/A,,Clear,170,2012-10-21 11:51:00
7:51 AM,73.9,70.0,87,29.85,6.0,South,11.5,-,N/A,,Clear,170,2012-10-21 12:51:00
8:24 AM,75.2,69.8,83,29.88,6.0,South,13.8,-,N/A,,Haze,170,2012-10-21 13:24:00
8:51 AM,75.9,70.0,82,29.87,7.0,South,15.0,-,N/A,,Mostly Cloudy,170,2012-10-21 13:51:00
9:51 AM,78.1,70.0,76,29.89,8.0,South,17.3,24.2,N/A,,Mostly Cloudy,190,2012-10-21 14:51:00
10:51 AM,82.0,70.0,67,29.90,9.0,South,18.4,28.8,N/A,,Mostly Cloudy,190,2012-10-21 15:51:00
11:39 AM,82.4,69.8,66,29.92,9.0,South,20.7,26.5,N/A,,Overcast,190,2012-10-21 16:39:00
11:51 AM,82.0,69.1,65,29.89,9.0,South,17.3,25.3,N/A,,Overcast,180,2012-10-21 16:51:00
12:24 PM,84.2,69.8,62,29.91,9.0,South,17.3,28.8,N/A,,Overcast,180,2012-10-21 17:24:00
12:51 PM,86.0,69.1,57,29.88,10.0,South,17.3,26.5,N/A,,Overcast,180,2012-10-21 17:51:00
1:51 PM,86.0,68.0,55,29.85,10.0,South,17.3,-,N/A,,Scattered Clouds,180,2012-10-21 18:51:00
2:51 PM,89.1,68.0,50,29.82,10.0,South,18.4,25.3,N/A,,Scattered Clouds,170,2012-10-21 19:51:00
3:51 PM,89.1,66.9,48,29.81,10.0,South,20.7,28.8,N/A,,Scattered Clouds,180,2012-10-21 20:51:00
4:51 PM,88.0,66.0,48,29.81,10.0,South,15.0,-,N/A,,Scattered Clouds,180,2012-10-21 21:51:00
5:51 PM,86.0,66.2,51,29.84,10.0,South,15.0,-,N/A,,Scattered Clouds,170,2012-10-21 22:51:00
6:51 PM,84.0,66.0,55,29.83,10.0,South,13.8,23.0,N/A,,Clear,170,2012-10-21 23:51:00
7:51 PM,82.0,66.0,58,29.85,10.0,SSE,11.5,-,N/A,,Clear,160,2012-10-22 00:51:00
8:51 PM,81.0,68.0,65,29.86,10.0,SSE,15.0,20.7,N/A,,Clear,160,2012-10-22 01:51:00
9:51 PM,78.8,69.8,74,29.89,10.0,SSE,17.3,24.2,N/A,,Clear,160,2012-10-22 02:51:00
10:51 PM,78.1,68.0,71,29.89,10.0,South,21.9,27.6,N/A,,Clear,170,2012-10-22 03:51:00
11:51 PM,75.2,68.0,78,29.92,10.0,South,16.1,25.3,N/A,,Clear,170,2012-10-22 04:51:00